Temperature
22 21 21 21 23 25 28 30 31 30 30 30 29 29 28 27 25 24 23 23 22 21 21 21 21 20 20 20 20 20 20 20 19 19 19 19 19 19 19 19 19 19 19 19 19 19 19 19 19
22 21 22 23 25 27 29 30 30 30 30 30 29 28 27 26 25 24 23 23 22 21 21 21 21 20 20 20 20 20 20 20 19 19 19 19 19 19 19 19 19 19 19 19 19 19 19 19 19
22 22 23 26 28 29 29 30 31 31 30 30 29 28 27 26 25 24 23 23 22 21 21 21 20 20 20 20 20 20 20 20 19 19 19 19 19 19 19 19 19 19 19 19 19 19 19 19 19
22 24 25 28 29 31 31 31 31 31 30 30 29 27 26 25 24 24 23 23 22 21 21 21 21 20 20 20 20 20 20 20 19 19 19 19 19 19 19 19 19 19 19 19 19 19 19 19 19
24 25 27 29 30 31 32 32 31 31 31 30 28 27 25 25 24 24 23 23 22 22 21 21 21 21 20 20 20 20 20 20 19 19 19 19 19 19 19 19 19 19 19 19 19 19 19 19 19
25 28 28 29 30 31 32 32 31 31 30 29 28 27 25 25 24 24 23 23 23 22 22 21 21 21 21 20 20 20 20 20 20 19 19 19 19 19 19 19 19 19 19 19 19 19 19 19 19
27 28 29 31 31 31 32 32 31 31 30 30 28 27 25 25 24 24 24 23 23 22 22 21 21 21 21 20 20 20 20 20 20 20 19 19 19 19 19 19 19 19 19 19 19 19 19 19 19
29 30 30 31 31 31 32 31 31 30 30 29 28 27 25 25 24 24 24 23 23 23 22 21 21 21 21 21 20 20 20 20 20 20 19 19 19 19 19 19 19 19 19 19 19 19 19 19 19
30 30 30 31 31 31 32 32 31 30 29 29 28 27 25 25 25 24 24 23 23 23 22 22 21 21 21 21 21 20 20 20 20 19 19 19 19 19 19 19 19 19 19 19 19 19 19 19 19
31 30 31 32 33 32 32 32 31 30 29 28 27 26 25 25 25 24 24 24 23 23 22 22 22 21 21 21 21 20 20 20 20 19 19 19 19 19 19 19 19 19 19 19 19 19 19 19 19
32 31 32 33 33 33 32 32 31 30 29 29 27 26 26 25 25 25 24 23 23 23 22 22 21 21 21 21 21 21 20 20 20 20 19 19 19 19 19 19 19 19 19 19 19 19 19 19 19
33 33 33 33 33 33 32 32 31 30 29 28 27 27 26 25 25 25 24 23 23 23 22 22 21 21 21 21 21 21 20 20 20 20 19 19 19 19 19 19 19 19 19 19 19 19 19 19 19
33 33 33 33 33 32 32 31 31 30 29 28 27 27 26 26 25 25 24 23 23 22 22 21 21 21 21 21 21 20 20 20 20 20 19 19 19 19 19 19 19 19 19 19 19 19 19 19 19
33 33 33 33 33 32 31 30 30 30 29 28 27 27 26 26 25 25 24 23 23 22 22 21 21 21 21 20 20 20 20 20 20 20 19 19 19 19 19 19 19 19 19 19 19 19 19 19 19
33 32 32 33 33 32 31 30 30 30 29 28 28 27 26 26 25 25 24 23 22 22 21 21 21 21 20 20 20 20 20 20 20 20 19 19 19 19 19 19 19 19 19 19 19 19 19 19 19
32 31 31 32 33 33 31 29 30 30 29 29 28 27 26 26 25 24 24 23 22 22 21 21 21 21 20 20 20 20 20 20 20 20 19 19 19 19 19 19 19 19 19 19 19 19 19 19 19
30 30 30 31 33 33 32 29 30 30 30 29 29 28 27 26 25 24 24 23 22 22 21 21 21 21 20 20 20 20 20 20 20 20 19 19 19 19 19 19 19 19 19 19 19 19 19 19 19
29 30 31 31 33 33 31 30 30 30 30 30 29 28 27 26 25 25 24 23 22 21 21 21 21 20 20 20 20 20 20 20 19 19 19 19 19 19 19 19 19 19 19 19 19 19 19 19 19
31 31 31 32 34 33 31 31 31 31 31 30 29 28 28 26 26 25 24 23 22 21 21 21 21 21 20 20 20 20 20 20 19 19 19 19 19 19 19 19 19 19 19 19 19 19 19 19 19
32 31 31 32 33 33 31 31 30 31 31 30 29 29 27 26 26 25 24 23 22 22 21 21 21 21 20 20 20 20 20 20 19 19 19 19 19 19 19 19 19 19 19 19 19 19 19 19 19
32 32 32 32 32 32 31 30 30 31 31 30 29 29 28 27 26 25 24 24 23 22 21 21 21 21 20 20 20 20 20 20 19 19 19 19 19 19 19 19 19 19 19 19 19 19 19 19 19
32 33 33 33 32 31 31 28 29 29 30 31 30 29 28 27 26 25 24 24 23 22 21 21 21 21 20 20 20 20 19 19 19 19 19 19 19 19 19 19 19 19 19 19 19 19 19 19 19
32 33 33 33 32 31 31 30 29 29 29 30 30 29 28 27 26 25 24 23 23 22 22 21 21 21 20 20 20 19 19 19 19 19 19 19 18 19 19 19 19 19 18 18 19 19 19 19 19
33 33 33 32 31 29 31 30 28 29 29 30 30 29 28 27 26 25 24 24 23 22 22 21 21 20 20 20 20 19 19 19 19 19 19 18 18 19 19 18 18 18 18 18 19 18 19 19 19
33 32 30 29 29 29 31 31 29 31 31 31 30 29 28 27 26 25 24 24 23 22 22 21 21 20 20 20 19 19 19 19 19 19 18 18 18 19 19 18 18 18 18 18 18 18 18 18 18
32 32 29 28 28 29 30 30 30 31 32 31 30 29 28 27 26 25 24 24 23 22 22 21 21 20 20 19 19 19 19 19 18 18 18 18 18 18 18 18 18 18 18 18 18 18 18 18 18
32 32 32 31 30 30 31 30 30 31 31 31 30 29 28 27 26 25 25 24 23 22 21 21 20 20 20 19 19 19 19 18 18 18 18 18 18 18 18 18 18 18 18 18 18 18 17 17 17
33 33 32 30 29 29 30 29 29 29 30 31 30 29 28 27 26 25 25 24 23 22 21 21 20 20 19 19 19 19 19 18 18 18 18 18 18 18 18 18 17 17 17 17 17 17 17 17 17
33 32 32 31 30 29 28 29 31 30 30 31 30 29 28 27 26 25 25 24 23 22 21 20 20 19 19 19 19 18 18 18 18 18 18 18 17 17 17 17 17 17 17 17 17 17 17 17 17
33 33 33 31 30 30 29 29 32 31 31 30 30 28 27 27 26 25 24 23 22 21 21 20 20 19 19 19 18 18 18 17 17 17 17 17 17 17 17 17 17 17 17 17 17 16 16 16 16
Wind_Speed
9 10 8 5 5 2 7 11 12 12 12 12 13 13 15 15 10 7 5 8 9 10 9 9 9 8 8 8 8 8 7 7 7 7 7 7 7 6 6 6 6 7 7 7 7 8 9 11 12
9 9 6 4 3 4 10 11 12 12 10 10 13 15 15 14 12 8 6 6 9 11 9 9 9 9 9 9 9 9 8 8 7 8 7 7 8 8 8 7 6 7 7 7 7 8 10 11 12
11 10 5 4 2 8 11 10 10 10 10 11 12 14 11 10 10 7 6 7 10 10 10 10 9 8 8 8 8 9 8 8 7 8 8 8 8 7 7 7 7 7 7 7 7 8 11 11 11
6 5 5 2 7 12 11 10 9 10 11 12 11 11 11 11 9 8 8 9 10 10 10 10 9 8 8 8 7 8 8 8 8 8 8 8 7 7 7 7 7 7 8 8 8 9 10 11 10
7 5 3 3 10 12 11 10 10 11 11 12 14 13 12 12 11 9 8 9 9 10 10 10 9 8 8 8 7 8 8 8 8 8 7 7 7 6 7 7 7 8 8 9 9 9 10 11 10
4 4 2 6 12 10 11 10 10 12 11 12 13 14 11 9 9 8 9 8 9 11 10 10 9 8 8 8 8 9 8 8 8 7 7 7 6 5 6 7 7 8 9 10 10 10 11 10 9
5 4 2 6 10 9 11 11 11 11 11 11 11 12 9 8 8 8 9 8 8 10 10 8 9 9 8 9 9 9 8 8 8 7 7 6 6 7 7 7 7 7 8 10 10 10 9 8 8
6 4 3 7 9 9 10 11 12 12 12 10 9 9 8 8 7 8 9 9 8 8 8 7 8 7 8 8 9 9 8 7 7 7 6 5 6 7 8 8 7 7 8 10 11 10 9 7 7
7 3 5 7 8 8 9 10 11 10 12 13 13 13 12 10 9 8 8 8 8 8 7 7 7 6 6 7 9 8 7 7 6 5 5 4 3 5 7 8 9 8 9 11 10 9 8 7 6
1 3 5 6 7 7 8 9 8 9 11 12 13 13 12 10 8 7 8 8 8 7 8 8 8 6 5 5 6 5 5 6 4 4 5 3 3 4 7 8 9 10 11 11 9 7 6 5 4
2 3 3 5 7 7 8 9 8 8 10 11 12 12 11 9 7 7 8 9 8 8 8 8 7 6 6 4 3 4 4 5 4 5 5 4 2 3 4 4 6 7 8 7 7 6 3 3 3
2 2 3 5 6 6 7 9 9 10 11 12 12 11 10 8 7 7 9 8 8 8 8 8 8 8 6 5 4 3 4 4 4 5 5 4 3 4 4 3 3 4 4 4 4 3 3 3 4
1 2 3 4 5 7 9 8 9 11 11 12 13 11 10 8 7 8 9 9 8 8 9 9 8 7 6 4 3 5 4 4 5 5 5 5 4 5 5 3 3 3 4 4 4 4 3 3 4
2 3 2 0 4 8 9 4 6 9 11 11 11 10 9 8 7 8 8 8 8 7 8 8 8 7 5 4 3 3 4 4 5 5 5 5 4 4 4 4 3 3 3 3 3 3 3 3 4
2 2 3 2 3 5 7 5 3 7 10 10 10 9 8 8 7 7 7 7 8 7 7 7 7 7 5 4 3 4 4 5 4 4 5 5 5 4 3 3 3 3 3 3 2 2 2 3 4
6 4 3 4 3 5 5 3 3 6 8 9 9 9 8 7 7 7 8 7 8 7 7 5 6 7 5 4 3 3 4 4 4 4 5 5 5 3 2 2 3 2 2 2 2 2 2 2 2
6 5 4 4 4 2 4 5 5 7 8 8 8 9 9 8 7 7 8 8 8 8 7 6 6 5 4 4 3 3 4 4 3 4 4 4 4 4 2 2 2 2 2 2 3 3 2 1 1
6 6 5 4 2 2 3 7 8 7 7 8 8 9 9 9 8 8 8 8 9 8 7 6 5 4 3 3 3 2 3 3 3 3 4 3 3 2 2 2 2 2 2 3 3 2 1 0 0
7 7 7 5 2 2 3 5 7 7 7 7 8 9 9 8 9 9 8 9 9 8 7 5 5 4 2 2 1 2 2 2 2 3 4 3 3 3 3 3 2 2 3 2 1 1 0 0 0
8 8 7 5 4 3 2 2 3 6 7 7 7 7 8 8 8 9 8 8 8 8 7 6 5 4 3 2 1 2 2 1 2 3 4 3 3 2 2 3 2 3 2 1 1 1 1 1 1
9 8 7 5 5 6 4 5 3 4 6 8 8 8 9 9 8 9 9 8 8 8 7 6 5 4 3 2 2 2 2 1 2 3 3 3 2 3 3 3 3 2 1 1 0 1 1 1 1
9 8 8 8 8 7 6 4 4 6 7 8 8 8 8 9 9 9 9 8 8 8 8 7 5 4 3 2 1 1 1 2 2 2 3 2 1 2 3 3 3 3 2 2 1 1 2 1 1
9 8 9 10 10 8 8 5 4 7 7 8 8 8 8 8 9 9 9 9 8 8 9 8 6 5 4 2 1 1 1 1 1 2 2 2 2 2 2 2 2 2 1 1 2 2 2 2 2
9 9 10 9 8 9 9 6 4 6 9 9 9 9 9 9 9 9 8 10 8 8 8 8 7 5 4 3 2 2 2 2 1 1 1 1 1 1 2 2 2 1 1 1 1 1 1 2 2
10 9 5 5 5 8 8 4 3 7 8 8 10 10 10 10 11 10 9 10 9 8 7 8 8 6 5 4 3 2 1 1 1 0 0 0 1 1 1 2 2 1 1 1 1 1 1 1 2
10 9 7 6 6 6 4 2 3 6 8 8 9 10 10 10 10 10 9 9 8 8 8 8 7 6 5 4 3 2 2 1 1 0 0 1 1 2 2 2 2 2 2 1 1 1 0 1 2
11 9 9 9 11 7 3 4 5 6 7 9 9 10 10 9 10 9 9 9 9 8 7 7 7 6 5 4 3 3 1 0 1 1 1 1 1 1 2 2 2 2 2 2 1 1 1 1 1
11 11 8 7 6 7 4 2 3 6 7 8 9 10 9 9 9 9 8 8 8 8 8 7 7 6 5 4 3 3 2 1 1 1 2 3 3 3 2 1 1 1 1 2 1 1 1 1 1
11 12 10 6 7 7 5 1 5 7 5 7 9 10 10 10 9 8 7 8 8 8 8 7 6 5 4 4 3 2 3 2 1 1 1 2 2 2 2 1 1 1 1 1 1 1 0 0 1
11 12 11 8 7 7 7 2 3 5 6 5 8 9 9 10 9 9 9 8 7 7 7 6 5 5 4 4 3 3 2 2 2 2 2 2 1 1 1 1 1 1 1 1 1 2 1 0 0
Wind_Direction
191 207 217 241 250 243 54 52 51 52 54 53 51 56 54 52 56 76 76 68 85 92 94 93 81 69 62 63 71 79 88 94 91 86 83 92 95 101 107 117 131 141 147 148 151 153 158 161 159
214 216 232 251 271 58 61 56 52 56 59 63 62 63 62 60 69 82 78 75 88 94 90 88 84 75 70 72 76 81 88 93 94 92 88 91 94 95 95 101 120 131 136 138 143 153 157 156 156
247 242 253 245 22 55 57 62 61 63 64 66 70 64 59 62 66 76 88 93 87 90 91 92 87 80 74 74 78 86 89 92 95 94 92 91 95 98 97 95 110 127 128 126 133 147 152 151 154
239 244 241 278 52 58 64 63 64 66 64 67 73 71 66 64 74 87 99 94 93 96 96 97 92 87 83 82 87 90 91 93 97 95 90 89 91 96 98 97 104 124 126 122 121 132 141 145 150
251 260 259 59 63 63 66 67 67 65 68 70 78 82 76 71 82 93 97 92 95 97 102 107 105 98 97 94 96 98 97 96 98 99 95 88 88 97 103 104 106 123 121 118 115 122 132 139 147
265 270 349 70 71 60 66 66 70 65 69 78 85 86 80 81 89 92 87 85 91 100 103 115 121 116 111 108 102 102 99 98 100 99 95 90 86 102 116 114 110 119 118 116 116 120 124 133 145
264 303 8 68 81 66 63 63 65 71 67 70 85 91 95 88 87 91 90 82 86 98 108 117 126 127 123 114 108 107 102 103 107 105 101 94 85 97 113 119 118 120 126 127 123 122 122 125 138
266 285 7 65 74 76 76 72 68 69 65 70 81 93 101 104 97 89 86 79 76 84 97 106 108 120 126 124 119 116 116 114 113 108 104 103 92 91 106 117 120 125 131 134 131 130 131 138 150
270 319 32 54 71 80 83 82 81 80 77 70 75 94 107 110 100 93 87 81 72 72 79 87 96 104 117 121 123 132 131 122 119 112 112 109 106 96 98 108 117 123 131 134 138 141 147 153 163
292 35 53 56 78 85 83 82 87 86 85 86 88 98 109 109 106 97 89 82 76 71 72 70 70 71 85 91 117 131 124 121 117 102 109 115 102 104 105 114 118 125 133 135 140 144 154 170 166
54 44 58 70 79 87 89 86 81 91 94 97 106 112 114 112 105 94 84 81 80 80 72 71 72 66 61 68 86 92 99 104 98 88 84 84 91 109 107 124 128 133 137 144 137 146 152 144 123
62 48 52 75 78 87 87 88 86 80 91 107 115 117 114 114 108 101 93 88 81 76 75 67 64 67 58 53 59 77 80 84 83 78 65 65 55 53 60 76 88 108 116 118 122 114 103 101 102
337 45 43 84 108 92 75 75 92 94 102 110 117 117 117 113 106 99 94 91 84 80 78 74 69 70 64 54 47 72 72 74 87 89 74 66 65 64 63 56 66 78 94 96 89 91 98 97 100
344 21 356 111 108 112 103 90 89 106 115 117 119 119 119 116 111 103 96 92 86 81 80 84 84 83 71 67 59 67 79 80 75 77 77 75 76 77 83 79 73 77 88 92 95 96 98 84 81
322 285 268 256 160 132 121 100 104 121 125 128 130 129 128 123 113 109 109 104 97 88 84 84 92 84 71 61 56 82 84 87 79 84 82 82 87 83 82 91 96 93 107 110 98 84 95 99 95
293 269 268 285 244 151 131 121 183 150 137 139 143 141 136 128 124 119 115 108 104 98 87 77 82 89 86 66 48 58 75 83 86 90 90 82 80 82 72 83 91 93 106 102 111 92 79 91 102
286 273 257 250 249 179 157 144 181 171 157 150 149 148 149 145 137 132 127 119 108 100 94 87 74 84 95 93 81 72 72 72 73 81 82 83 87 81 67 71 83 120 99 81 83 76 73 96 126
267 276 267 256 183 165 154 155 182 187 172 159 157 153 156 154 151 146 136 126 117 112 104 102 97 90 101 102 88 74 71 78 78 83 86 78 79 76 51 90 61 71 83 75 66 59 43 74 252
260 270 280 271 234 223 211 173 177 184 183 170 165 158 155 151 149 145 142 133 125 119 113 106 105 100 91 81 87 87 84 79 95 98 91 81 62 57 40 63 78 69 79 94 115 99 246 295 90
266 271 275 275 291 300 300 183 187 208 184 179 175 157 147 145 143 142 141 135 130 124 124 123 120 118 112 99 88 90 90 83 90 77 88 83 67 56 68 69 73 78 79 69 75 44 295 259 123
267 272 285 280 271 257 251 259 230 215 177 177 169 161 158 160 158 156 153 145 139 133 132 127 118 119 126 130 121 102 106 89 78 93 93 73 62 66 43 42 40 66 85 77 31 351 359 333 320
271 273 276 278 269 264 253 253 213 218 206 182 170 164 160 157 163 163 153 147 141 135 128 116 123 122 117 112 98 130 125 99 85 95 100 105 100 92 79 68 41 23 20 34 325 48 326 298 285
268 282 279 280 276 266 253 249 205 196 197 186 171 160 157 156 158 154 154 148 146 142 138 133 130 123 117 118 96 86 81 102 97 102 114 119 107 102 90 80 60 43 16 9 9 26 355 337 323
267 271 271 276 274 269 262 253 210 193 186 180 169 161 155 152 146 141 146 145 145 144 142 141 135 132 129 121 95 74 63 67 76 86 109 119 114 111 102 96 71 58 1 24 6 351 347 334 339
249 259 275 276 261 256 259 256 173 171 155 160 160 157 155 151 144 144 144 143 144 142 141 138 137 140 147 143 128 115 97 110 157 129 103 130 98 69 52 66 63 40 11 24 348 336 327 330 329
250 252 253 264 267 264 247 210 152 142 134 139 145 147 147 146 143 144 146 145 144 142 137 134 137 139 144 147 145 147 172 207 222 258 6 10 38 68 59 63 53 28 10 8 358 340 282 333 316
252 254 261 265 272 278 239 158 141 140 139 141 142 141 144 144 145 147 150 147 146 144 137 135 135 139 146 147 141 149 160 348 33 22 8 47 43 80 75 63 56 37 18 4 3 347 348 358 313
248 264 269 266 283 283 271 205 165 167 169 160 152 150 151 151 148 147 147 147 145 143 137 137 135 140 146 144 156 156 139 126 106 51 29 37 31 29 43 54 48 30 13 4 348 321 5 354 327
229 240 250 260 269 284 292 292 155 169 169 164 154 152 157 154 151 149 147 143 142 140 137 134 134 138 146 146 147 134 141 147 132 101 74 66 47 23 17 17 18 13 351 335 325 319 11 345 314
242 248 250 250 252 266 273 248 136 137 142 148 144 136 142 147 150 147 143 140 139 139 137 136 141 144 143 135 137 134 132 121 101 87 83 84 71 21 13 354 344 328 328 325 314 313 1 11 341
Height
1485 1485 1485 1488 1487 1483 1477 1467 1462 1463 1464 1466 1467 1468 1472 1475 1481 1492 1491 1489 1488 1486 1485 1483 1481 1479 1476 1472 1470 1470 1471 1474 1476 1477 1477 1478 1478 1478 1479 1480 1482 1483 1485 1486 1488 1489 1490 1493 1496
1485 1487 1489 1487 1483 1484 1478 1467 1466 1466 1467 1468 1470 1472 1476 1480 1485 1489 1490 1490 1489 1488 1486 1484 1483 1480 1477 1475 1473 1473 1474 1476 1478 1479 1479 1479 1480 1480 1480 1481 1482 1483 1485 1486 1487 1487 1490 1493 1497
1486 1489 1488 1481 1478 1478 1476 1467 1466 1467 1468 1469 1473 1477 1481 1485 1488 1490 1491 1491 1490 1489 1487 1486 1484 1482 1480 1478 1477 1477 1477 1479 1480 1481 1481 1481 1482 1482 1482 1482 1482 1484 1485 1486 1486 1487 1490 1494 1497
1487 1488 1485 1478 1476 1468 1467 1466 1466 1468 1470 1471 1474 1480 1486 1489 1490 1491 1492 1491 1491 1490 1488 1487 1485 1484 1482 1481 1481 1480 1481 1481 1482 1483 1483 1483 1483 1483 1483 1483 1483 1485 1486 1487 1488 1489 1492 1495 1498
1488 1485 1480 1478 1473 1466 1465 1466 1468 1469 1471 1474 1478 1484 1489 1492 1492 1493 1493 1492 1491 1491 1489 1488 1487 1486 1485 1484 1483 1483 1483 1484 1485 1485 1485 1485 1485 1484 1484 1484 1484 1485 1487 1488 1489 1491 1493 1497 1500
1488 1481 1484 1481 1474 1468 1466 1468 1469 1472 1474 1477 1480 1485 1492 1494 1494 1494 1494 1493 1493 1491 1490 1489 1488 1487 1487 1487 1486 1486 1487 1487 1487 1488 1487 1487 1485 1482 1482 1484 1485 1486 1488 1489 1491 1493 1496 1499 1502
1486 1481 1480 1475 1474 1473 1470 1470 1472 1474 1476 1478 1482 1487 1493 1495 1495 1495 1495 1495 1494 1493 1492 1491 1490 1489 1489 1489 1489 1490 1490 1490 1490 1490 1490 1489 1486 1481 1481 1485 1487 1488 1488 1490 1494 1496 1498 1500 1503
1481 1478 1476 1473 1475 1475 1471 1473 1475 1477 1479 1482 1483 1488 1493 1496 1496 1496 1496 1496 1496 1495 1494 1493 1492 1492 1492 1492 1492 1492 1493 1493 1493 1493 1493 1492 1490 1487 1486 1488 1489 1489 1488 1491 1496 1498 1500 1502 1505
1477 1479 1480 1474 1473 1473 1471 1474 1477 1480 1482 1484 1486 1490 1494 1496 1497 1497 1498 1498 1497 1497 1496 1496 1495 1495 1495 1495 1495 1496 1496 1496 1496 1496 1496 1496 1495 1493 1492 1493 1492 1490 1490 1493 1498 1501 1503 1504 1506
1475 1479 1476 1469 1469 1471 1472 1475 1477 1480 1483 1487 1490 1493 1495 1497 1498 1498 1499 1499 1499 1499 1498 1498 1498 1498 1499 1499 1499 1499 1499 1499 1499 1499 1499 1499 1499 1498 1498 1497 1496 1494 1495 1498 1502 1504 1505 1506 1507
1473 1474 1470 1469 1469 1471 1472 1475 1478 1480 1484 1488 1491 1494 1496 1498 1499 1499 1500 1501 1501 1501 1500 1500 1500 1500 1501 1501 1502 1502 1502 1502 1502 1502 1502 1502 1502 1502 1502 1501 1501 1501 1502 1503 1506 1507 1508 1509 1509
1472 1471 1469 1469 1471 1472 1473 1476 1479 1482 1486 1489 1492 1495 1497 1499 1500 1501 1502 1503 1503 1503 1503 1502 1502 1502 1502 1503 1504 1505 1505 1505 1505 1505 1505 1505 1505 1505 1505 1505 1505 1505 1506 1507 1508 1510 1511 1512 1513
1471 1471 1470 1470 1471 1473 1476 1478 1481 1484 1488 1490 1493 1496 1498 1500 1501 1502 1504 1504 1505 1505 1505 1504 1504 1504 1505 1505 1506 1507 1507 1507 1507 1507 1507 1507 1507 1507 1507 1508 1508 1508 1509 1510 1511 1512 1514 1515 1516
1471 1472 1473 1471 1471 1473 1478 1481 1483 1486 1489 1492 1494 1497 1499 1501 1502 1503 1505 1505 1506 1507 1507 1507 1507 1506 1507 1507 1508 1508 1509 1509 1509 1509 1509 1509 1509 1509 1509 1510 1510 1511 1512 1513 1514 1515 1516 1517 1518
1473 1474 1474 1471 1470 1473 1476 1483 1485 1486 1488 1492 1495 1498 1500 1502 1503 1504 1506 1507 1507 1508 1508 1508 1508 1508 1508 1509 1510 1511 1511 1511 1511 1511 1511 1511 1511 1511 1511 1512 1512 1513 1514 1515 1516 1517 1518 1519 1520
1475 1478 1483 1474 1470 1472 1479 1492 1485 1485 1488 1491 1494 1497 1500 1502 1504 1505 1507 1508 1508 1509 1509 1510 1510 1509 1510 1510 1511 1512 1512 1512 1513 1513 1513 1513 1513 1513 1514 1514 1514 1515 1516 1517 1518 1519 1519 1520 1521
1483 1488 1486 1478 1469 1469 1475 1486 1483 1484 1485 1488 1492 1496 1499 1502 1504 1506 1507 1508 1509 1509 1510 1510 1510 1511 1511 1512 1513 1513 1514 1514 1514 1514 1514 1514 1515 1515 1515 1516 1516 1516 1517 1518 1519 1520 1520 1521 1521
1491 1487 1483 1479 1468 1469 1475 1480 1480 1481 1482 1486 1490 1493 1497 1501 1503 1505 1507 1508 1509 1510 1510 1511 1511 1512 1513 1513 1514 1515 1515 1515 1515 1515 1515 1515 1516 1516 1517 1517 1517 1518 1518 1519 1519 1520 1520 1521 1522
1477 1480 1481 1473 1465 1469 1474 1476 1476 1478 1481 1484 1487 1491 1495 1499 1502 1505 1507 1509 1510 1510 1511 1511 1512 1513 1513 1514 1515 1515 1516 1516 1517 1517 1517 1517 1517 1518 1518 1518 1518 1519 1519 1520 1521 1521 1521 1522 1522
1473 1478 1478 1471 1464 1468 1475 1476 1476 1477 1479 1483 1486 1489 1494 1498 1501 1504 1506 1508 1509 1510 1511 1512 1512 1513 1514 1514 1515 1516 1516 1517 1518 1518 1518 1518 1518 1519 1519 1519 1519 1519 1520 1520 1521 1521 1521 1522 1522
1473 1475 1474 1474 1469 1467 1475 1482 1477 1475 1478 1481 1484 1487 1492 1496 1499 1502 1505 1507 1509 1510 1510 1512 1512 1513 1514 1515 1516 1517 1517 1518 1518 1519 1519 1519 1519 1519 1519 1520 1520 1520 1520 1520 1521 1521 1521 1522 1522
1476 1466 1466 1468 1474 1479 1475 1496 1485 1478 1478 1479 1482 1485 1490 1493 1497 1500 1503 1505 1508 1509 1510 1511 1512 1513 1514 1515 1516 1517 1518 1518 1519 1519 1519 1519 1519 1519 1519 1519 1520 1520 1520 1520 1520 1521 1521 1521 1521
1469 1462 1464 1466 1471 1477 1474 1485 1486 1477 1480 1478 1480 1483 1487 1491 1495 1498 1501 1504 1506 1509 1510 1511 1512 1513 1514 1515 1516 1517 1518 1518 1519 1519 1519 1520 1520 1520 1519 1519 1519 1519 1519 1520 1520 1520 1520 1520 1520
1461 1463 1465 1466 1473 1492 1478 1482 1489 1477 1475 1474 1477 1482 1486 1489 1494 1498 1501 1503 1506 1508 1509 1510 1511 1513 1514 1515 1516 1517 1517 1518 1518 1519 1519 1519 1519 1519 1519 1519 1518 1518 1518 1518 1518 1518 1519 1519 1519
1463 1474 1490 1497 1497 1495 1472 1476 1481 1467 1465 1470 1475 1480 1485 1489 1493 1497 1500 1503 1506 1507 1509 1510 1511 1512 1513 1514 1515 1516 1517 1518 1518 1519 1519 1519 1519 1518 1518 1518 1517 1517 1517 1517 1517 1517 1517 1517 1518
1464 1471 1495 1508 1504 1489 1475 1481 1472 1463 1464 1469 1473 1478 1483 1488 1492 1496 1499 1502 1505 1507 1508 1509 1510 1512 1513 1514 1515 1516 1516 1517 1518 1518 1519 1518 1518 1518 1517 1517 1516 1516 1516 1516 1516 1515 1516 1516 1516
1465 1466 1463 1478 1480 1486 1478 1473 1469 1462 1465 1468 1473 1478 1483 1487 1491 1495 1499 1501 1504 1506 1507 1509 1509 1511 1512 1513 1514 1515 1516 1516 1517 1517 1517 1517 1517 1517 1516 1516 1515 1515 1514 1514 1514 1514 1514 1514 1514
1456 1458 1465 1477 1493 1497 1486 1482 1480 1472 1468 1468 1472 1477 1482 1486 1491 1494 1497 1500 1503 1505 1506 1508 1509 1510 1511 1512 1513 1514 1515 1515 1516 1516 1516 1516 1515 1515 1515 1514 1514 1513 1513 1513 1513 1512 1513 1513 1513
1458 1461 1463 1468 1475 1490 1498 1488 1463 1466 1465 1467 1471 1476 1480 1485 1489 1493 1496 1499 1502 1504 1506 1507 1508 1509 1510 1511 1512 1513 1514 1514 1514 1515 1515 1514 1514 1514 1513 1513 1512 1512 1511 1511 1511 1511 1511 1511 1511
1449 1453 1457 1473 1478 1476 1485 1483 1456 1458 1462 1467 1470 1476 1480 1484 1488 1491 1495 1498 1501 1503 1505 1506 1508 1509 1510 1510 1511 1512 1512 1513 1513 1513 1513 1513 1513 1512 1511 1511 1511 1510 1510 1510 1510 1510 1510 1509 1509